• în România
  • Lista ţărilor
  • Pe 7 zile
  • Temperatura apei
  • Hartă satelitară
  • Meteo pe hartă
  • Widget-uri
  • user-avatar
    Intrare

    Meteo pe oră la Pervomayskaya

    Astăzi, 25 Iunie, Luni

    Timp Temperatura Precipitaţii Vânt Presiune Umiditate
    00:00 +23°C° 0 mm 2 m/s 751 mmHg 64%
    01:00 +21°C° 0 mm 2 m/s 751 mmHg 66%
    02:00 +21°C° 0 mm 2 m/s 751 mmHg 69%
    03:00 +21°C° 0 mm 1 m/s 751 mmHg 72%
    04:00 +22°C° 0 mm 1 m/s 751 mmHg 71%
    05:00 +23°C° 0 mm 1 m/s 752 mmHg 71%
    06:00 +23°C° 0 mm 1 m/s 752 mmHg 70%
    07:00 +25°C° 0 mm 1 m/s 752 mmHg 66%
    08:00 +27°C° 0 mm 2 m/s 752 mmHg 61%
    09:00 +28°C° 0 mm 2 m/s 752 mmHg 57%
    10:00 +29°C° 0 mm 2 m/s 752 mmHg 53%
    11:00 +31°C° 0 mm 2 m/s 752 mmHg 49%
    12:00 +32°C° 0 mm 2 m/s 753 mmHg 45%
    13:00 +32°C° 0 mm 2 m/s 753 mmHg 44%
    14:00 +34°C° 0 mm 2 m/s 752 mmHg 43%
    15:00 +34°C° 0 mm 2 m/s 752 mmHg 41%
    16:00 +32°C° 0,2 mm 2 m/s 752 mmHg 46%
    17:00 +32°C° 0,2 mm 2 m/s 752 mmHg 51%
    18:00 +31°C° 0,2 mm 2 m/s 752 mmHg 56%
    19:00 +29°C° 0,1 mm 2 m/s 753 mmHg 64%
    20:00 +27°C° 0,1 mm 2 m/s 753 mmHg 71%
    21:00 +25°C° 0,1 mm 3 m/s 753 mmHg 78%
    22:00 +24°C° 0,2 mm 3 m/s 753 mmHg 81%
    23:00 +23°C° 0,2 mm 2 m/s 753 mmHg 83%

    Mâine, 26 Iunie, Marţi

    Timp Temperatura Precipitaţii Vânt Presiune Umiditate
    00:00 +23°C° 0,2 mm 2 m/s 753 mmHg 85%
    01:00 +21°C° 0,2 mm 2 m/s 753 mmHg 86%
    02:00 +21°C° 0,2 mm 2 m/s 753 mmHg 87%
    03:00 +21°C° 0,2 mm 2 m/s 753 mmHg 87%
    04:00 +21°C° 0 mm 2 m/s 753 mmHg 85%
    05:00 +23°C° 0 mm 2 m/s 753 mmHg 82%
    06:00 +24°C° 0 mm 2 m/s 753 mmHg 80%
    07:00 +25°C° 0 mm 2 m/s 753 mmHg 73%
    08:00 +27°C° 0 mm 2 m/s 753 mmHg 66%
    09:00 +29°C° 0 mm 2 m/s 753 mmHg 59%
    10:00 +30°C° 0 mm 2 m/s 753 mmHg 54%
    11:00 +31°C° 0 mm 3 m/s 753 mmHg 49%
    12:00 +34°C° 0 mm 3 m/s 753 mmHg 45%
    13:00 +34°C° 0 mm 2 m/s 753 mmHg 43%
    14:00 +34°C° 0 mm 2 m/s 753 mmHg 42%
    15:00 +35°C° 0 mm 2 m/s 753 mmHg 41%
    16:00 +34°C° 0 mm 2 m/s 753 mmHg 44%
    17:00 +34°C° 0 mm 2 m/s 753 mmHg 48%
    18:00 +32°C° 0 mm 2 m/s 753 mmHg 52%
    19:00 +30°C° 0 mm 2 m/s 753 mmHg 56%
    20:00 +28°C° 0 mm 2 m/s 753 mmHg 60%
    21:00 +26°C° 0 mm 2 m/s 753 mmHg 64%
    22:00 +26°C° 0,4 mm 3 m/s 753 mmHg 70%
    23:00 +25°C° 0,4 mm 3 m/s 753 mmHg 75%

    Poimâine, 27 Iunie, Miercuri

    Timp Temperatura Precipitaţii Vânt Presiune Umiditate
    00:00 +23°C° 0,4 mm 4 m/s 753 mmHg 80%
    01:00 +22°C° 0 mm 3 m/s 753 mmHg 82%
    02:00 +22°C° 0 mm 3 m/s 753 mmHg 85%
    03:00 +21°C° 0 mm 3 m/s 753 mmHg 87%
    04:00 +22°C° 0 mm 3 m/s 753 mmHg 85%
    05:00 +24°C° 0 mm 2 m/s 753 mmHg 83%
    06:00 +24°C° 0 mm 2 m/s 753 mmHg 81%
    07:00 +26°C° 0,3 mm 3 m/s 753 mmHg 77%
    08:00 +27°C° 0,3 mm 3 m/s 753 mmHg 72%
    09:00 +29°C° 0,3 mm 3 m/s 753 mmHg 67%
    10:00 +29°C° 0,6 mm 3 m/s 753 mmHg 63%
    11:00 +30°C° 0,6 mm 3 m/s 753 mmHg 60%
    12:00 +31°C° 0,6 mm 3 m/s 753 mmHg 56%
    13:00 +31°C° 0,6 mm 3 m/s 753 mmHg 56%
    14:00 +31°C° 0,6 mm 3 m/s 753 mmHg 56%
    15:00 +31°C° 0,6 mm 3 m/s 752 mmHg 57%
    16:00 +30°C° 0,7 mm 3 m/s 752 mmHg 63%
    17:00 +29°C° 0,7 mm 3 m/s 753 mmHg 68%
    18:00 +28°C° 0,7 mm 3 m/s 753 mmHg 74%
    19:00 +27°C° 0,1 mm 3 m/s 753 mmHg 77%
    20:00 +26°C° 0,1 mm 3 m/s 753 mmHg 80%
    21:00 +25°C° 0,1 mm 3 m/s 753 mmHg 83%
    22:00 +24°C° 0 mm 3 m/s 753 mmHg 85%
    23:00 +22°C° 0 mm 3 m/s 752 mmHg 87%

    28 Iunie, Joi

    Timp Temperatura Precipitaţii Vânt Presiune Umiditate
    00:00 +22°C° 0 mm 3 m/s 752 mmHg 89%
    01:00 +21°C° 0,2 mm 3 m/s 752 mmHg 90%
    02:00 +21°C° 0,2 mm 3 m/s 753 mmHg 91%
    03:00 +20°C° 0,2 mm 2 m/s 753 mmHg 92%
    04:00 +21°C° 0 mm 3 m/s 753 mmHg 89%
    05:00 +22°C° 0 mm 3 m/s 753 mmHg 87%
    06:00 +22°C° 0 mm 4 m/s 753 mmHg 85%
    07:00 +25°C° 0 mm 4 m/s 753 mmHg 79%
    08:00 +26°C° 0 mm 4 m/s 753 mmHg 74%
    09:00 +28°C° 0 mm 4 m/s 753 mmHg 68%
    10:00 +29°C° 0 mm 4 m/s 753 mmHg 64%
    11:00 +30°C° 0 mm 4 m/s 753 mmHg 60%
    12:00 +30°C° 0 mm 4 m/s 752 mmHg 57%
    13:00 +32°C° 0 mm 4 m/s 752 mmHg 56%
    14:00 +32°C° 0 mm 4 m/s 752 mmHg 55%
    15:00 +32°C° 0 mm 4 m/s 752 mmHg 54%
    16:00 +30°C° 0,1 mm 4 m/s 752 mmHg 58%
    17:00 +30°C° 0,1 mm 3 m/s 752 mmHg 62%
    18:00 +29°C° 0,1 mm 3 m/s 752 mmHg 66%
    19:00 +28°C° 0 mm 3 m/s 752 mmHg 70%
    20:00 +26°C° 0 mm 3 m/s 752 mmHg 73%
    21:00 +24°C° 0 mm 3 m/s 752 mmHg 77%
    22:00 +22°C° 0 mm 3 m/s 752 mmHg 78%
    23:00 +21°C° 0 mm 3 m/s 752 mmHg 79%

    29 Iunie, Vineri

    Timp Temperatura Precipitaţii Vânt Presiune Umiditate
    00:00 +20°C° 0 mm 3 m/s 752 mmHg 80%
    01:00 +20°C° 0 mm 3 m/s 752 mmHg 80%
    02:00 +19°C° 0 mm 3 m/s 752 mmHg 80%
    03:00 +19°C° 0 mm 3 m/s 752 mmHg 80%
    04:00 +19°C° 0 mm 4 m/s 752 mmHg 79%
    05:00 +20°C° 0 mm 4 m/s 752 mmHg 78%
    06:00 +21°C° 0 mm 4 m/s 753 mmHg 77%
    07:00 +22°C° 0 mm 4 m/s 753 mmHg 72%
    08:00 +25°C° 0 mm 4 m/s 753 mmHg 68%
    09:00 +26°C° 0 mm 4 m/s 753 mmHg 64%
    10:00 +27°C° 0 mm 4 m/s 752 mmHg 59%
    11:00 +28°C° 0 mm 5 m/s 752 mmHg 55%
    12:00 +29°C° 0 mm 5 m/s 752 mmHg 50%
    13:00 +30°C° 0 mm 5 m/s 752 mmHg 49%
    14:00 +30°C° 0 mm 4 m/s 752 mmHg 48%
    15:00 +30°C° 0 mm 4 m/s 752 mmHg 47%
    16:00 +29°C° 0 mm 4 m/s 752 mmHg 51%
    17:00 +29°C° 0 mm 3 m/s 751 mmHg 55%
    18:00 +28°C° 0 mm 3 m/s 751 mmHg 59%
    19:00 +27°C° 0 mm 3 m/s 751 mmHg 63%
    20:00 +25°C° 0 mm 3 m/s 752 mmHg 66%
    21:00 +22°C° 0 mm 3 m/s 752 mmHg 69%
    22:00 +21°C° 0 mm 3 m/s 752 mmHg 71%
    23:00 +21°C° 0 mm 3 m/s 752 mmHg 72%

    30 Iunie, Sâmbătă

    Timp Temperatura Precipitaţii Vânt Presiune Umiditate
    00:00 +20°C° 0 mm 3 m/s 752 mmHg 74%
    01:00 +20°C° 0 mm 3 m/s 752 mmHg 76%
    02:00 +19°C° 0 mm 3 m/s 752 mmHg 79%
    03:00 +19°C° 0 mm 3 m/s 752 mmHg 82%
    04:00 +19°C° 0 mm 3 m/s 752 mmHg 80%
    05:00 +20°C° 0 mm 4 m/s 753 mmHg 78%
    06:00 +21°C° 0 mm 4 m/s 753 mmHg 76%
    07:00 +22°C° 0 mm 4 m/s 753 mmHg 71%
    08:00 +25°C° 0 mm 4 m/s 753 mmHg 66%
    09:00 +26°C° 0 mm 5 m/s 753 mmHg 61%
    10:00 +27°C° 0 mm 5 m/s 753 mmHg 58%
    11:00 +28°C° 0 mm 4 m/s 753 mmHg 55%
    12:00 +29°C° 0 mm 4 m/s 753 mmHg 52%
    13:00 +29°C° 0 mm 4 m/s 753 mmHg 51%
    14:00 +29°C° 0 mm 4 m/s 753 mmHg 50%
    15:00 +29°C° 0 mm 4 m/s 753 mmHg 49%
    16:00 +29°C° 0 mm 4 m/s 753 mmHg 53%
    17:00 +28°C° 0 mm 3 m/s 752 mmHg 56%
    18:00 +28°C° 0 mm 3 m/s 752 mmHg 60%
    19:00 +26°C° 0 mm 3 m/s 752 mmHg 64%
    20:00 +24°C° 0 mm 3 m/s 752 mmHg 68%
    21:00 +21°C° 0 mm 3 m/s 752 mmHg 72%
    22:00 +21°C° 0 mm 3 m/s 752 mmHg 74%
    23:00 +20°C° 0 mm 3 m/s 752 mmHg 76%
    Arată mai mult